This is the latest recevied weather packets stored in our database for station/object K4AXV-13. If no packets are shown the sender has not sent any weather packets the latest 10 day(s).
| Time | Temp. | Humidity | Pressure | Rain* | Wind** | Luminosity | Snow |
|---|---|---|---|---|---|---|---|
| 1778090164 | 29.44° C | - | - | 0 mm | 2.24 m/s, 225° | - | - |
| 1778089865 | 28.89° C | - | - | 0 mm | 2.24 m/s, 257° | - | - |
| 1778089562 | 28.89° C | - | - | 0 mm | 1.34 m/s, 255° | - | - |
| 1778089263 | 28.89° C | - | - | 0 mm | 2.24 m/s, 349° | - | - |
| 1778088962 | 28.89° C | - | - | 0 mm | 1.34 m/s, 314° | - | - |
| 1778088663 | 28.89° C | - | - | 0 mm | 3.13 m/s, 319° | - | - |
| 1778088362 | 28.89° C | - | - | 0 mm | 1.79 m/s, 340° | - | - |
| 1778088063 | 28.89° C | - | - | 0 mm | 2.68 m/s, 8° | - | - |
| 1778087759 | 29.44° C | - | - | 0 mm | 1.34 m/s, 236° | - | - |
| 1778087460 | 30° C | - | - | 0 mm | 1.34 m/s, 359° | - | - |
| 1778087158 | 30° C | - | - | 0 mm | 2.24 m/s, 295° | - | - |
| 1778086859 | 29.44° C | - | - | 0 mm | 0.45 m/s, 323° | - | - |
| 1778086557 | 29.44° C | - | - | 0 mm | 0.89 m/s, 300° | - | - |
| 1778086258 | 29.44° C | - | - | 0 mm | 0.89 m/s, 255° | - | - |
| 1778085955 | 30.56° C | - | - | 0 mm | 0.89 m/s, 229° | - | - |
| 1778085656 | 30° C | - | - | 0 mm | 1.79 m/s, 248° | - | - |
| 1778085353 | 31.11° C | - | - | 0 mm | 0 m/s | - | - |
| 1778085054 | 31.11° C | - | - | 0 mm | 2.68 m/s, 248° | - | - |
| 1778084753 | 31.11° C | - | - | 0 mm | 0.45 m/s, 108° | - | - |
| 1778084454 | 31.11° C | - | - | 0 mm | 2.24 m/s, 326° | - | - |
| 1778084150 | 31.11° C | - | - | 0 mm | 0.89 m/s, 249° | - | - |
| 1778083851 | 30.56° C | - | - | 0 mm | 2.68 m/s, 321° | - | - |
| 1778083547 | 30.56° C | - | - | 0 mm | 1.34 m/s, 314° | - | - |
| 1778083248 | 30° C | - | - | 0 mm | 1.34 m/s, 305° | - | - |
| 1778082947 | 30° C | - | - | 0 mm | 2.68 m/s, 342° | - | - |
* Rain latest hour (hover to see other rain measurements)
** Current wind speed in m/s (hover to see current wind gust speed)